When you browse on this site, cookies collect data to enhance your experience and personalize the content and advertising you see.
Visit our Privacy Policy to learn more. By continuing to use the site, you agree to this use of cookies and data.
EN

Hourly Weather Pomorie

Today, 5 August, Wednesday

Time Temperature Precipitation Wind Pressure Humidity
00:00 +20°C° 0 mm 3 mps 758 mmHg 90%
01:00 +19°C° 0 mm 2 mps 758 mmHg 90%
02:00 +19°C° 0 mm 2 mps 758 mmHg 90%
03:00 +19°C° 0 mm 2 mps 758 mmHg 90%
04:00 +19°C° 0 mm 2 mps 758 mmHg 90%
05:00 +19°C° 0 mm 3 mps 758 mmHg 90%
06:00 +21°C° 0 mm 3 mps 758 mmHg 81%
07:00 +23°C° 0 mm 4 mps 758 mmHg 72%
08:00 +26°C° 0 mm 4 mps 758 mmHg 63%
09:00 +27°C° 0 mm 5 mps 758 mmHg 57%
10:00 +29°C° 0 mm 5 mps 758 mmHg 51%
11:00 +30°C° 0 mm 6 mps 758 mmHg 45%
12:00 +32°C° 0 mm 6 mps 758 mmHg 43%
13:00 +32°C° 0 mm 6 mps 758 mmHg 42%
14:00 +32°C° 0 mm 6 mps 757 mmHg 40%
15:00 +30°C° 0 mm 7 mps 757 mmHg 43%
16:00 +30°C° 0 mm 7 mps 757 mmHg 47%
17:00 +29°C° 0 mm 7 mps 757 mmHg 51%
18:00 +28°C° 0 mm 7 mps 758 mmHg 60%
19:00 +26°C° 0 mm 6 mps 758 mmHg 70%
20:00 +23°C° 0 mm 6 mps 758 mmHg 80%
21:00 +23°C° 0 mm 5 mps 758 mmHg 81%
22:00 +22°C° 0 mm 5 mps 758 mmHg 82%
23:00 +22°C° 0 mm 4 mps 759 mmHg 83%

Tomorrow, 6 August, Thursday

Time Temperature Precipitation Wind Pressure Humidity
00:00 +21°C° 0 mm 4 mps 758 mmHg 83%
01:00 +21°C° 0 mm 5 mps 758 mmHg 83%
02:00 +21°C° 0 mm 5 mps 758 mmHg 83%
03:00 +20°C° 0 mm 5 mps 758 mmHg 84%
04:00 +20°C° 0 mm 5 mps 758 mmHg 85%
05:00 +20°C° 0 mm 5 mps 758 mmHg 86%
06:00 +22°C° 0 mm 5 mps 759 mmHg 77%
07:00 +24°C° 0 mm 6 mps 759 mmHg 67%
08:00 +27°C° 0 mm 7 mps 759 mmHg 58%
09:00 +29°C° 0 mm 7 mps 759 mmHg 52%
10:00 +30°C° 0 mm 7 mps 759 mmHg 47%
11:00 +32°C° 0 mm 8 mps 759 mmHg 42%
12:00 +32°C° 0 mm 8 mps 759 mmHg 42%
13:00 +33°C° 0 mm 8 mps 759 mmHg 42%
14:00 +33°C° 0 mm 8 mps 759 mmHg 42%
15:00 +32°C° 0 mm 8 mps 759 mmHg 45%
16:00 +31°C° 0 mm 8 mps 759 mmHg 48%
17:00 +31°C° 0 mm 8 mps 759 mmHg 51%
18:00 +28°C° 0 mm 8 mps 759 mmHg 62%
19:00 +27°C° 0 mm 7 mps 759 mmHg 72%
20:00 +24°C° 0 mm 6 mps 760 mmHg 82%
21:00 +24°C° 0 mm 6 mps 760 mmHg 84%
22:00 +23°C° 0 mm 6 mps 760 mmHg 86%
23:00 +23°C° 0 mm 5 mps 760 mmHg 89%

Day after tomorrow, 7 August, Friday

Time Temperature Precipitation Wind Pressure Humidity
00:00 +23°C° 0 mm 5 mps 759 mmHg 89%
01:00 +23°C° 0 mm 5 mps 759 mmHg 89%
02:00 +22°C° 0 mm 5 mps 759 mmHg 90%
03:00 +22°C° 0 mm 5 mps 759 mmHg 89%
04:00 +22°C° 0 mm 5 mps 759 mmHg 89%
05:00 +22°C° 0 mm 5 mps 759 mmHg 89%
06:00 +24°C° 0 mm 6 mps 759 mmHg 80%
07:00 +27°C° 0 mm 7 mps 759 mmHg 72%
08:00 +29°C° 0 mm 8 mps 759 mmHg 63%
09:00 +32°C° 0 mm 8 mps 759 mmHg 57%
10:00 +33°C° 0 mm 9 mps 759 mmHg 52%
11:00 +34°C° 0 mm 9 mps 759 mmHg 46%
12:00 +35°C° 0 mm 9 mps 759 mmHg 45%
13:00 +35°C° 0 mm 9 mps 758 mmHg 43%
14:00 +36°C° 0 mm 10 mps 758 mmHg 42%
15:00 +34°C° 0 mm 10 mps 758 mmHg 45%
16:00 +33°C° 0 mm 10 mps 758 mmHg 48%
17:00 +33°C° 0 mm 9 mps 758 mmHg 51%
18:00 +31°C° 0 mm 9 mps 758 mmHg 60%
19:00 +29°C° 0 mm 8 mps 758 mmHg 69%
20:00 +27°C° 0 mm 8 mps 758 mmHg 77%
21:00 +27°C° 0 mm 7 mps 758 mmHg 79%
22:00 +26°C° 0 mm 7 mps 758 mmHg 81%
23:00 +26°C° 0 mm 6 mps 758 mmHg 83%

8 August, Saturday

Time Temperature Precipitation Wind Pressure Humidity
00:00 +26°C° 0 mm 6 mps 758 mmHg 85%
01:00 +24°C° 0 mm 6 mps 758 mmHg 86%
02:00 +24°C° 0 mm 6 mps 758 mmHg 87%
03:00 +24°C° 0 mm 6 mps 758 mmHg 87%
04:00 +24°C° 0 mm 6 mps 758 mmHg 87%
05:00 +24°C° 0 mm 6 mps 758 mmHg 87%
06:00 +26°C° 0 mm 7 mps 758 mmHg 77%
07:00 +28°C° 0 mm 8 mps 758 mmHg 67%
08:00 +31°C° 0 mm 9 mps 758 mmHg 56%
09:00 +33°C° 0 mm 10 mps 758 mmHg 50%
10:00 +34°C° 0 mm 10 mps 758 mmHg 44%
11:00 +36°C° 0 mm 10 mps 757 mmHg 38%
12:00 +36°C° 0 mm 10 mps 757 mmHg 39%
13:00 +36°C° 0 mm 11 mps 757 mmHg 39%
14:00 +36°C° 0 mm 11 mps 757 mmHg 39%
15:00 +34°C° 0 mm 11 mps 757 mmHg 42%
16:00 +33°C° 0 mm 10 mps 757 mmHg 44%
17:00 +32°C° 0 mm 10 mps 757 mmHg 47%
18:00 +31°C° 0 mm 10 mps 757 mmHg 53%
19:00 +28°C° 0 mm 9 mps 757 mmHg 58%
20:00 +27°C° 0 mm 8 mps 758 mmHg 64%
21:00 +27°C° 0 mm 8 mps 758 mmHg 67%
22:00 +26°C° 0 mm 8 mps 757 mmHg 70%
23:00 +26°C° 0 mm 7 mps 757 mmHg 74%

9 August, Sunday

Time Temperature Precipitation Wind Pressure Humidity
00:00 +24°C° 0 mm 7 mps 757 mmHg 74%
01:00 +24°C° 0 mm 7 mps 757 mmHg 74%
02:00 +24°C° 0 mm 7 mps 757 mmHg 75%
03:00 +23°C° 0 mm 7 mps 757 mmHg 75%
04:00 +23°C° 0 mm 7 mps 757 mmHg 74%
05:00 +23°C° 0 mm 7 mps 757 mmHg 74%
06:00 +24°C° 0 mm 7 mps 757 mmHg 67%
07:00 +27°C° 0 mm 8 mps 757 mmHg 60%
08:00 +28°C° 0 mm 8 mps 757 mmHg 53%
09:00 +29°C° 0.1 mm 9 mps 757 mmHg 49%
10:00 +32°C° 0.1 mm 9 mps 757 mmHg 45%
11:00 +33°C° 0.1 mm 9 mps 757 mmHg 42%
12:00 +33°C° 0.1 mm 9 mps 757 mmHg 43%
13:00 +32°C° 0.1 mm 9 mps 757 mmHg 44%
14:00 +32°C° 0.1 mm 9 mps 757 mmHg 45%
15:00 +32°C° 0 mm 8 mps 757 mmHg 45%
16:00 +32°C° 0 mm 8 mps 757 mmHg 44%
17:00 +30°C° 0 mm 7 mps 757 mmHg 44%
18:00 +29°C° 0 mm 7 mps 757 mmHg 51%
19:00 +27°C° 0 mm 6 mps 757 mmHg 59%
20:00 +25°C° 0 mm 5 mps 757 mmHg 66%
21:00 +23°C° 0 mm 4 mps 758 mmHg 69%
22:00 +22°C° 0 mm 4 mps 758 mmHg 73%
23:00 +22°C° 0 mm 4 mps 758 mmHg 76%

10 August, Monday

Time Temperature Precipitation Wind Pressure Humidity
00:00 +21°C° 0 mm 3 mps 758 mmHg 75%
01:00 +21°C° 0 mm 3 mps 758 mmHg 74%
02:00 +20°C° 0 mm 3 mps 758 mmHg 74%
03:00 +20°C° 0 mm 3 mps 758 mmHg 73%
04:00 +20°C° 0 mm 4 mps 758 mmHg 72%
05:00 +20°C° 0 mm 4 mps 758 mmHg 70%
06:00 +22°C° 0 mm 4 mps 758 mmHg 62%
07:00 +25°C° 0 mm 5 mps 758 mmHg 53%
08:00 +27°C° 0 mm 5 mps 758 mmHg 45%
09:00 +29°C° 0 mm 6 mps 758 mmHg 40%
10:00 +32°C° 0 mm 6 mps 759 mmHg 36%
11:00 +34°C° 0 mm 6 mps 759 mmHg 32%
12:00 +34°C° 0 mm 6 mps 758 mmHg 33%
13:00 +34°C° 0 mm 7 mps 758 mmHg 34%
14:00 +34°C° 0 mm 7 mps 758 mmHg 34%
15:00 +33°C° 0 mm 7 mps 758 mmHg 38%
16:00 +32°C° 0 mm 6 mps 758 mmHg 42%
17:00 +30°C° 0 mm 6 mps 758 mmHg 46%
18:00 +28°C° 0 mm 5 mps 758 mmHg 56%
19:00 +26°C° 0 mm 4 mps 759 mmHg 65%
20:00 +24°C° 0 mm 3 mps 759 mmHg 75%
21:00 +22°C° 0 mm 3 mps 759 mmHg 77%
22:00 +23°C° 0 mm 2 mps 759 mmHg 80%
23:00 +21°C° 0 mm 2 mps 760 mmHg 82%
Show more